This demonstration page uses our WeatherBlox Daily Observations layout. Learn more.

Left ArrowRight Arrow

Hourly Observations for July 27, 2015

Temp ( °F °C ) Dew Point ( °F °C ) Humidity (%) Winds ( mph kmh ) Pressure ( in mb ) Visibility ( mi km ) Precip ( " mm )
12:52 am 00:52 Clear 80 26.7 76 24.4 87 87 S 6 9 29.91 1013 10 16 0.00 0.00
1:52 am 01:52 Clear 79 26.1 76 24.4 90 90 S 5 7 29.91 1013 10 16 0.00 0.00
2:52 am 02:52 Clear 79 26.1 76 24.4 90 90 S 6 9 29.91 1013 10 16 0.00 0.00
3:52 am 03:52 Clear 78 25.6 75 23.9 90 90 S 6 9 29.89 1012 10 16 0.00 0.00
4:52 am 04:52 Clear 78 25.6 74 23.3 87 87 SSE 7 11 29.89 1012 10 16 0.00 0.00
5:52 am 05:52 Clear 77 25 73 22.8 88 88 S 5 7 29.90 1013 10 16 0.00 0.00
6:52 am 06:52 Sunny 76 24.4 73 22.8 91 91 S 3 6 29.93 1014 8 13 0.00 0.00
7:52 am 07:52 Sunny 80 26.7 75 23.9 85 85 S 8 13 29.93 1014 10 16 0.00 0.00
8:52 am 08:52 Sunny 83 28.3 76 24.4 79 79 SSW 9 15 29.95 1014 10 16 0.00 0.00
9:52 am 09:52 Sunny 87 30.6 76 24.4 70 70 WSW 9 15 29.94 1014 10 16 0.00 0.00
10:52 am 10:52 Sunny 89 31.7 76 24.4 65 65 WSW 3 6 29.94 1014 10 16 0.00 0.00
11:52 am 11:52 Sunny 90 32.2 73 22.8 58 58 SW 5 7 29.93 1014 10 16 0.00 0.00
12:52 pm 12:52 Mostly Sunny 91 32.8 72 22.2 54 54 SW 7 11 29.92 1013 10 16 0.00 0.00
1:52 pm 13:52 Sunny 93 33.9 72 22.2 50 50 WSW 6 9 29.91 1013 10 16 0.00 0.00
2:52 pm 14:52 Sunny 93 33.9 69 20.6 46 46 undefined N/A 29.90 1013 10 16 0.00 0.00
3:52 pm 15:52 Partly Cloudy 92 33.3 73 22.8 54 54 WSW 3 6 29.90 1012 10 16 0.00 0.00
4:52 pm 16:52 Mostly Cloudy 91 32.8 74 23.3 57 57 S 6 9 29.88 1012 10 16 0.00 0.00
5:52 pm 17:52 Mostly Sunny 92 33.3 74 23.3 56 56 S 10 17 29.87 1012 10 16 0.00 0.00
6:52 pm 18:52 Sunny 90 32.2 75 23.9 62 62 S 7 11 29.87 1011 10 16 0.00 0.00
7:52 pm 19:52 Sunny 88 31.1 75 23.9 66 66 S 6 9 29.88 1012 10 16 0.00 0.00
8:52 pm 20:52 Clear 84 28.9 74 23.3 72 72 S 8 13 29.89 1012 10 16 0.00 0.00
9:52 pm 21:52 Clear 84 28.9 75 23.9 74 74 SSE 7 11 29.91 1013 10 16 0.00 0.00
10:52 pm 22:52 Clear 83 28.3 75 23.9 77 77 SSE 8 13 29.92 1013 10 16 0.00 0.00
11:52 pm 23:52 Clear 82 27.8 75 23.9 79 79 SSE 10 17 29.91 1013 10 16 0.00 0.00

Powered by AerisWeather